Regional Weather Roundup
Issued by NWS

Home | Current Version | Previous Version | Text Only | Print | Product List | Glossary Off
Versions: 1 2 3 4 5 6 7 8 9 10 11 12 13 14 15 16 17 18 19 20 21 22 23 24 25 26 27 28 29 30 31 32 33 34 35 36 37 38 39 40 41 42 43 44 45 46 47 48 49 50

000
ASUS43 KMKX 270621
RWRWI

WISCONSIN REGIONAL WEATHER ROUNDUP
NATIONAL WEATHER SERVICE MILWAUKEE/SULLIVAN WI
100 AM CDT THU APR 27 2017

NOTE: "FAIR" INDICATES FEW OR NO CLOUDS BELOW 12,000 FEET WITH NO
SIGNIFICANT WEATHER AND/OR OBSTRUCTIONS TO VISIBILITY.

WIZ001-002-006>008-014>016-023>028-270700-
NORTHWEST WISCONSIN

CITY           SKY/WX    TMP DP  RH WIND       PRES   REMARKS
SUPERIOR ARPT  CLOUDY    28  24  83 CALM      29.62F
6HR MIN TEMP:  28; 6HR MAX TEMP:  33;

ASHLAND        CLOUDY    29  27  92 N10       29.60S WCI  20
6HR MIN TEMP:  28; 6HR MAX TEMP:  32; 6HR PCP:  0.06;

HAYWARD        CLOUDY    30  26  85 N9        29.56S FOG     WCI  22
6HR MIN TEMP:  30; 6HR MAX TEMP:  34; 6HR PCP: TRACE;

SIREN          CLOUDY    32  28  86 N8        29.58F WCI  25
6HR MIN TEMP:  32; 6HR MAX TEMP:  35;

CUMBERLAND     CLOUDY    32  28  86 N10       29.55F WCI  24
RICE LAKE      CLOUDY    33  29  83 N8        29.56F WCI  26
6HR MIN TEMP:  33; 6HR MAX TEMP:  36;

CHETEK         CLOUDY    34  30  87 N8        29.53F WCI  27
6HR MIN TEMP:  34; 6HR MAX TEMP:  37;

LADYSMITH      CLOUDY    32  29  86 N10       29.54S WCI  24
6HR MIN TEMP:  32; 6HR MAX TEMP:  36;

EAU CLAIRE     CLOUDY    36  31  82 N10       29.52S WCI  28
6HR MIN TEMP:  36; 6HR MAX TEMP:  39;

MENOMONIE      CLOUDY    36  32  85 NW13      29.53F WCI  27
6HR MIN TEMP:  36; 6HR MAX TEMP:  39;

NEW RICHMOND   CLOUDY    34  30  86 N8        29.54F WCI  27
6HR MIN TEMP:  34; 6HR MAX TEMP:  38;

OSCEOLA        CLOUDY    34  32  92 N7        29.59F WCI  28
6HR MIN TEMP:  34; 6HR MAX TEMP:  38;

$$

WIZ003>005-009-010-017-018-270700-
NORTH CENTRAL WISCONSIN

CITY           SKY/WX    TMP DP  RH WIND       PRES   REMARKS
MANITOWISH WTR CLOUDY    28  28 100 N7        29.50F WCI  21
6HR MIN TEMP:  28; 6HR MAX TEMP:  32;

ARBOR VITAE    CLOUDY    32  30  92 N12       29.48F WCI  23
6HR MIN TEMP:  32; 6HR MAX TEMP:  37;

WOODRUFF       CLOUDY    32  30  92 N12       29.48F WCI  23
6HR MIN TEMP:  32; 6HR MAX TEMP:  37;

RHINELANDER    CLOUDY    34  33  96 N6        29.47F WCI  29
6HR MIN TEMP:  34; 6HR MAX TEMP:  41;

EAGLE RIVER    CLOUDY    31  30  96 N8        29.47F WCI  24
6HR MIN TEMP:  31; 6HR MAX TEMP:  37;

LAND O LAKES   LGT SNOW  31  29  95 N12G17    29.49F WCI  21
6HR MIN TEMP:  31; 6HR MAX TEMP:  35;

PHILLIPS       LGT SNOW  29  28  96 N5        29.50F WCI  24
6HR MIN TEMP:  30; 6HR MAX TEMP:  35;

TOMAHAWK       CLOUDY    32  31  93 N6        29.49S WCI  27
6HR MIN TEMP:  32; 6HR MAX TEMP:  37;

MEDFORD        CLOUDY    34  33  97 N7        29.47S FOG     WCI  28
6HR MIN TEMP:  34; 6HR MAX TEMP:  39;

MERRILL        CLOUDY    35  35  99 N8        29.47F WCI  29
6HR MIN TEMP:  35; 6HR MAX TEMP:  43;

$$

WIZ029-030-035-036-043>047-270700-
CENTRAL WISCONSIN

CITY           SKY/WX    TMP DP  RH WIND       PRES   REMARKS
WAUSAU         CLOUDY    38  35  89 NW9       29.45F WCI  31
6HR MIN TEMP:  38; 6HR MAX TEMP:  46;

MOSINEE        CLOUDY    37  37 100 N7        29.47S WCI  32
MARSHFIELD     CLOUDY    38  35  89 N8        29.46R WCI  32
6HR MIN TEMP:  39; 6HR MAX TEMP:  42;

STEVENS POINT  CLOUDY    40  40 100 W3        29.46R
6HR MIN TEMP:  40; 6HR MAX TEMP:  45;

WAUPACA        CLOUDY    46  41  82 W3        29.46S
6HR MIN TEMP:  46; 6HR MAX TEMP:  55; 6HR PCP:  0.14;

WAUTOMA        CLOUDY    44  42  93 NW7       29.46F
6HR MIN TEMP:  44; 6HR MAX TEMP:  49;

WISC RAPIDS    CLOUDY    42  39  89 NW8       29.47F
6HR MIN TEMP:  41; 6HR MAX TEMP:  46;

CAMP DOUGLAS   CLOUDY    41  39  93 NW8       29.47S
6HR MIN TEMP:  40; 6HR MAX TEMP:  46; 6HR PCP: TRACE;

$$

WIZ011>013-019>022-031-037>040-048>050-270700-
NORTHEAST WISCONSIN

CITY           SKY/WX    TMP DP  RH WIND       PRES   REMARKS
ANTIGO         CLOUDY    37  36  96 N12       29.45F WCI  29
6HR MIN TEMP:  37; 6HR MAX TEMP:  47;

SHAWANO        CLOUDY    48  44  85 NW3       29.44F
OCONTO         CLOUDY    50  48  93 N6        29.43S
STURGEON BAY   RAIN      52  48  87 N13       29.43S
6HR MIN TEMP:  55; 6HR MAX TEMP:  62; 6HR PCP:  0.01;

GREEN BAY      LGT RAIN  51  50  96 CALM      29.42F
6HR MIN TEMP:  51; 6HR MAX TEMP:  66; 6HR PCP:  0.01;

MANITOWOC      CLOUDY    53  51  93 NW7       29.43F
6HR MIN TEMP:  53; 6HR MAX TEMP:  62; 6HR PCP:  0.09;

APPLETON       CLOUDY    46  43  87 NW7       29.42F
CLINTONVILLE   CLOUDY    46  41  81 NW3       29.44F
OSHKOSH        CLOUDY    47  44  90 NW8       29.42F
6HR MIN TEMP:  47; 6HR MAX TEMP:  62; 6HR PCP: TRACE;

$$

WIZ032>034-041-042-053>061-270700-
SOUTHWEST WISCONSIN

CITY           SKY/WX    TMP DP  RH WIND       PRES   REMARKS
LA CROSSE      CLOUDY    42  38  85 N14       29.50F
6HR MIN TEMP:  42; 6HR MAX TEMP:  45; 6HR PCP: TRACE;

SPARTA         CLOUDY    40  37  92 NW6       29.50S
6HR MIN TEMP:  39; 6HR MAX TEMP:  43;

VIROQUA        CLOUDY    39  39  99 NW8       29.47S WCI  34
6HR MIN TEMP:  39; 6HR MAX TEMP:  43;

BOSCOBEL       LGT RAIN  44  39  82 N8        29.49F
6HR MIN TEMP:  44; 6HR MAX TEMP:  49; 6HR PCP: TRACE;

PRAIRIE DU CHI RAIN      41  38  87 NW8       29.50S
6HR MIN TEMP:  41; 6HR MAX TEMP:  47; 6HR PCP:  0.03;

PLATTEVILLE    CLOUDY    43  43 100 NW9       29.47S
6HR MIN TEMP:  43; 6HR MAX TEMP:  49;

$$

WIZ056-057-062-063-064-067-068-270700-
SOUTH CENTRAL WISCONSIN

CITY           SKY/WX    TMP DP  RH WIND       PRES   REMARKS
REEDSBURG      CLOUDY    42  42 100 NW8       29.47S
6HR MIN TEMP:  42; 6HR MAX TEMP:  49;

BARABOO/DELLS  DRIZZLE   42  41  95 NW7       29.45F
6HR MIN TEMP:  42; 6HR MAX TEMP:  51;

LONE ROCK      LGT RAIN  44  40  85 NW9       29.46F
6HR MIN TEMP:  44; 6HR MAX TEMP:  50;

MINERAL POINT  LGT RAIN  43  43 100 NW9       29.45F
MADISON        LGT RAIN  47  45  93 N7        29.43F FOG
6HR MIN TEMP:  47; 6HR MAX TEMP:  54; 6HR PCP:  0.01;

MIDDLETON      CLOUDY    47  46  93 NW7       29.44F
6HR MIN TEMP:  47; 6HR MAX TEMP:  54; 6HR PCP:  0.01;

WATERTOWN      DRIZZLE   49  49 100 N7        29.42S
6HR MIN TEMP:  49; 6HR MAX TEMP:  58; 6HR PCP:  0.02;

MONROE         DRIZZLE   46  45  93 NW7       29.43F
JANESVILLE     RAIN      50  50 100 NW5       29.42S
$$

WIZ051-052-058>065-066-070>072-270700-
SOUTHEAST WISCONSIN

CITY           SKY/WX    TMP DP  RH WIND       PRES   REMARKS
MILWAUKEE      LGT RAIN  57  56  96 CALM      29.41F FOG
6HR MIN TEMP:  57; 6HR MAX TEMP:  67; 6HR PCP:  0.16;

WAUKESHA       LGT RAIN  50  50 100 NW3       29.41F
MILWAUKEE/TIMM LGT RAIN  54  50  87 CALM      29.41F
RACINE         LGT RAIN  56  54  93 N3        29.42F FOG
6HR MIN TEMP:  56; 6HR MAX TEMP:  67; 6HR PCP:  0.14;

KENOSHA        LGT RAIN  57  55  93 NE5       29.40F FOG
6HR MIN TEMP:  57; 6HR MAX TEMP:  65; 6HR PCP:  0.16;

FOND DU LAC    LGT RAIN  48  44  86 NW7       29.43F
6HR MIN TEMP:  48; 6HR MAX TEMP:  63; 6HR PCP:  0.02;

SHEBOYGAN      LGT RAIN  51  49  92 NW7       29.42F
6HR MIN TEMP:  51; 6HR MAX TEMP:  65; 6HR PCP:  0.07;

WEST BEND      RAIN      50  50 100 N9        29.41F
JUNEAU         DRIZZLE   46  45  95 N7        29.44F
6HR MIN TEMP:  46; 6HR MAX TEMP:  58;

$$

LSZ147-162-270700-
LAKE SUPERIOR

STATION/POSITION TIME  TEMP    WIND        PRES    WAVE
                       AIR SEA DIR/SP/G            HT/PER
                 (UTC) (F)     (DEG/KT/KT) (MB)    (FT/S)
DEVILS ISLAND    0600   27      10/ 11/ 14 1003.9R
SAXON HARBOR     0530   31      30/ 13/ 16 1002.4R
$$

LMZ867-665-643>646-270700-
LAKE MICHIGAN

STATION/POSITION TIME  TEMP    WIND        PRES    WAVE
                       AIR SEA DIR/SP/G            HT/PER
                 (UTC) (F)     (DEG/KT/KT) (MB)    (FT/S)
CHAMBERS ISLAND  0540   45     300/  8/ 11  997.3R
N MID LAKE BUOY  0550   41 37  180/  6/  6  997.3F   2/ 5
NORTHPORT PIER   0540   47     300/  9/ 12  996.6S
KEWAUNEE LAKESHO 0554   54     280/  6/  9  996.3F
SHEBOYGAN LAKESH 0600


USA.gov is the U.S. government's official web portal to all federal, state and local government web resources and services.